Flag for U.S.A. Weather past 2 weeks in Peoria, Illinois, U.S.A.

Now
76 °F

Scattered clouds.


Feels Like: 78 °F
Forecast: 63 / 78 °F
Wind: 9 mph from Southeast

Location: Greater Peoria Regional Airport

Current Time: May 24, 2015 at 11:30:30 AM

Latest Report: May 24, 2015 at 10:54 AM


Visibility: 10 mi

Pressure: 30.03 "Hg

Humidity: 56%

Dew point: 59 °F

Location of PeoriaLocation

Historic Weather in Peoria — Graph

°F

Peoria temperature yesterday

Maximum temperature yesterday: 81 °F (at 2:54 PM)
Minimum temperature yesterday: 58 °F (at 3:54 AM)
Average temperature yesterday: 71 °F

Past Weeks' High & Low Weather Summary

 TemperatureHumidityPressure
High83 °F (May 17, 3:54 PM)90% (May 10, 2:54 AM)30.46 "Hg (May 10, 2:54 AM)
Low43 °F (May 13, 5:54 AM)23% (May 22, 4:54 PM)29.82 "Hg (May 17, 10:54 AM)
Average64 °F63%30.09 "Hg
* Reported May 9 9:54 AM — May 24 9:54 AM, Peoria, Weather by CustomWeather, © 2015

Note: Actual official high and low records may vary slightly from our data, if they occured in-between our weather recording intervals... More about our weather records

Advertising

Peoria weather history for previous 24 hours

 ConditionsComfort  
Time TempWeatherWind HumidityBarometerVisibility
9:54 AM
Sun, May 24
72 °FPartly sunny.5 mph57%30.06 "Hg10 mi
8:54 AM70 °FScattered clouds.7 mph57%30.08 "Hg10 mi
7:54 AM69 °FPartly sunny.6 mph57%30.11 "Hg10 mi
6:54 AM66 °FScattered clouds.7 mph65%30.11 "Hg10 mi
5:54 AM68 °FOvercast.3 mph53%30.12 "Hg10 mi
4:54 AM68 °FMostly cloudy.3 mph53%30.12 "Hg10 mi
3:54 AM68 °FPassing clouds.6 mph53%30.14 "Hg10 mi
2:54 AM69 °FMostly cloudy.3 mph49%30.15 "Hg10 mi
1:54 AM70 °FMostly cloudy.6 mph49%30.14 "Hg10 mi
12:54 AM70 °FOvercast.6 mph51%30.14 "Hg10 mi
11:54 PM
Sat, May 23
70 °FPassing clouds.6 mph49%30.15 "Hg10 mi
10:54 PM71 °FPassing clouds.6 mph47%30.16 "Hg10 mi
9:54 PM72 °FClear.6 mph44%30.17 "Hg10 mi
8:54 PM73 °FSunny.5 mph43%30.15 "Hg10 mi
7:54 PM74 °FSunny.7 mph40%30.15 "Hg10 mi
6:54 PM78 °FSunny.9 mph31%30.16 "Hg10 mi
5:54 PM78 °FSunny.12 mph35%30.18 "Hg10 mi
4:54 PM80 °FSunny.15 mph32%30.19 "Hg10 mi
3:54 PM80 °FPassing clouds.10 mph34%30.21 "Hg10 mi
2:54 PM81 °FSunny.14 mph34%30.23 "Hg10 mi
1:54 PM79 °FPassing clouds.6 mph38%30.25 "Hg10 mi
12:54 PM78 °FSunny.9 mph37%30.27 "Hg10 mi
11:54 AM77 °FScattered clouds.7 mph40%30.29 "Hg10 mi
Weather by CustomWeather, © 2015

See weather overviewHow to use our weather pages